TimeEDT,TemperatureF,Dew PointF,Humidity,Sea Level PressureIn,VisibilityMPH,Wind Direction,Wind SpeedMPH,Gust SpeedMPH,PrecipitationIn,Events,Conditions,WindDirDegrees,DateUTC
12:15 AM,28.4,12.2,51,29.87,10.0,NW,6.9,-,N/A,,Mostly Cloudy,310,2013-03-21 04:15:00
12:35 AM,28.4,14.0,55,29.87,10.0,WNW,9.2,-,N/A,,Overcast,300,2013-03-21 04:35:00
12:55 AM,28.4,14.0,55,29.86,10.0,NW,3.5,-,N/A,,Overcast,310,2013-03-21 04:55:00
1:15 AM,28.4,15.8,59,29.86,10.0,NW,4.6,-,N/A,,Mostly Cloudy,310,2013-03-21 05:15:00
1:35 AM,28.4,15.8,59,29.85,10.0,NW,11.5,18.4,N/A,,Mostly Cloudy,320,2013-03-21 05:35:00
1:55 AM,26.6,17.6,69,29.86,8.0,NW,8.1,19.6,N/A,Snow,Light Snow,310,2013-03-21 05:55:00
2:15 AM,26.6,17.6,69,29.86,10.0,NW,9.2,-,N/A,,Mostly Cloudy,310,2013-03-21 06:15:00
2:55 AM,26.6,17.6,69,29.85,10.0,West,5.8,-,N/A,,Overcast,280,2013-03-21 06:55:00
3:15 AM,23.0,19.4,86,29.84,1.8,NW,6.9,-,0.06,Snow,Light Snow,310,2013-03-21 07:15:00
3:35 AM,23.0,19.4,86,29.84,10.0,WNW,6.9,-,0.15,,Overcast,290,2013-03-21 07:35:00
3:55 AM,23.0,15.8,74,29.84,10.0,NW,6.9,-,0.15,,Overcast,310,2013-03-21 07:55:00
4:15 AM,23.0,12.2,63,29.83,10.0,NW,9.2,-,N/A,,Mostly Cloudy,310,2013-03-21 08:15:00
4:35 AM,23.0,14.0,68,29.83,10.0,NW,10.4,-,N/A,Snow,Light Snow,320,2013-03-21 08:35:00
4:55 AM,21.2,17.6,86,29.83,3.0,West,8.1,-,0.01,Snow,Light Snow,280,2013-03-21 08:55:00
5:15 AM,21.2,12.2,68,29.83,10.0,WNW,8.1,-,N/A,,Overcast,290,2013-03-21 09:15:00
5:35 AM,21.2,10.4,63,29.84,10.0,West,6.9,-,N/A,,Mostly Cloudy,280,2013-03-21 09:35:00
5:55 AM,21.2,10.4,63,29.84,10.0,NNW,9.2,-,N/A,,Overcast,330,2013-03-21 09:55:00
6:15 AM,21.2,8.6,58,29.84,10.0,WNW,4.6,-,N/A,,Mostly Cloudy,290,2013-03-21 10:15:00
6:35 AM,21.2,8.6,58,29.84,10.0,West,8.1,-,N/A,,Partly Cloudy,280,2013-03-21 10:35:00
6:55 AM,21.2,8.6,58,29.83,10.0,WNW,3.5,-,N/A,,Mostly Cloudy,290,2013-03-21 10:55:00
7:15 AM,21.2,10.4,63,29.83,10.0,Calm,Calm,-,N/A,,Overcast,0,2013-03-21 11:15:00
7:35 AM,21.2,10.4,63,29.84,10.0,WNW,4.6,-,N/A,,Mostly Cloudy,290,2013-03-21 11:35:00
7:55 AM,19.4,8.6,63,29.84,10.0,West,10.4,-,N/A,,Mostly Cloudy,270,2013-03-21 11:55:00
8:15 AM,19.4,8.6,63,29.84,10.0,West,6.9,-,N/A,,Partly Cloudy,280,2013-03-21 12:15:00
8:35 AM,21.2,8.6,58,29.84,10.0,West,8.1,-,N/A,,Clear,260,2013-03-21 12:35:00
8:55 AM,21.2,10.4,63,29.84,10.0,West,5.8,-,N/A,,Partly Cloudy,270,2013-03-21 12:55:00
9:15 AM,21.2,8.6,58,29.84,10.0,West,5.8,-,N/A,,Scattered Clouds,270,2013-03-21 13:15:00
9:35 AM,21.2,8.6,58,29.84,10.0,West,13.8,18.4,N/A,,Mostly Cloudy,270,2013-03-21 13:35:00
9:55 AM,21.2,8.6,58,29.85,10.0,NW,6.9,-,N/A,,Mostly Cloudy,310,2013-03-21 13:55:00
10:15 AM,23.0,8.6,54,29.85,10.0,West,9.2,-,N/A,,Scattered Clouds,280,2013-03-21 14:15:00
10:35 AM,21.2,10.4,63,29.86,3.0,WNW,9.2,-,N/A,Snow,Light Snow,290,2013-03-21 14:35:00
10:55 AM,21.2,12.2,68,29.86,4.0,West,11.5,-,0.01,Snow,Light Snow,260,2013-03-21 14:55:00
11:15 AM,23.0,12.2,63,29.85,8.0,West,5.8,-,N/A,Snow,Light Snow,280,2013-03-21 15:15:00
11:35 AM,23.0,14.0,68,29.86,4.0,West,9.2,-,0.01,Snow,Light Snow,270,2013-03-21 15:35:00
11:55 AM,24.8,12.2,59,29.85,10.0,NW,12.7,18.4,0.01,Snow,Light Snow,310,2013-03-21 15:55:00
12:15 PM,21.2,12.2,68,29.85,2.5,WNW,12.7,20.7,0.02,Snow,Light Snow,300,2013-03-21 16:15:00
12:35 PM,23.0,10.4,59,29.85,10.0,West,9.2,17.3,0.05,,Scattered Clouds,280,2013-03-21 16:35:00
12:55 PM,23.0,8.6,54,29.85,10.0,West,12.7,19.6,0.05,,Partly Cloudy,280,2013-03-21 16:55:00
1:15 PM,26.6,10.4,51,29.85,10.0,WNW,9.2,16.1,N/A,,Mostly Cloudy,290,2013-03-21 17:15:00
1:35 PM,24.8,8.6,50,29.85,10.0,NW,11.5,-,N/A,,Mostly Cloudy,310,2013-03-21 17:35:00
1:55 PM,28.4,10.4,47,29.84,10.0,West,9.2,21.9,N/A,,Scattered Clouds,270,2013-03-21 17:55:00
2:15 PM,28.4,12.2,51,29.84,10.0,West,13.8,19.6,N/A,,Partly Cloudy,270,2013-03-21 18:15:00
2:35 PM,28.4,10.4,47,29.83,7.0,West,12.7,23.0,N/A,,Scattered Clouds,280,2013-03-21 18:35:00
2:55 PM,26.6,12.2,55,29.84,8.0,NW,10.4,24.2,N/A,,Scattered Clouds,320,2013-03-21 18:55:00
3:15 PM,26.6,8.6,47,29.85,10.0,NW,17.3,27.6,N/A,Snow,Light Snow,320,2013-03-21 19:15:00
3:35 PM,26.6,12.2,55,29.85,10.0,West,10.4,-,N/A,,Partly Cloudy,270,2013-03-21 19:35:00
3:55 PM,26.6,10.4,51,29.86,10.0,WNW,16.1,24.2,N/A,Rain,Freezing Rain,290,2013-03-21 19:55:00
4:15 PM,26.6,8.6,47,29.86,10.0,NW,9.2,21.9,N/A,,Scattered Clouds,320,2013-03-21 20:15:00
4:55 PM,26.6,10.4,51,29.86,10.0,NW,11.5,17.3,N/A,,Scattered Clouds,320,2013-03-21 20:55:00
5:15 PM,26.6,8.6,47,29.87,10.0,West,12.7,23.0,N/A,,Mostly Cloudy,280,2013-03-21 21:15:00
5:35 PM,26.6,10.4,51,29.87,10.0,West,11.5,17.3,N/A,,Scattered Clouds,270,2013-03-21 21:35:00
5:55 PM,26.6,8.6,47,29.87,10.0,WNW,8.1,17.3,N/A,,Mostly Cloudy,290,2013-03-21 21:55:00
6:15 PM,26.6,10.4,51,29.89,10.0,WNW,8.1,18.4,N/A,,Mostly Cloudy,290,2013-03-21 22:15:00
6:35 PM,26.6,10.4,51,29.89,10.0,West,9.2,-,N/A,,Mostly Cloudy,280,2013-03-21 22:35:00
6:55 PM,26.6,8.6,47,29.90,10.0,West,11.5,17.3,N/A,,Mostly Cloudy,280,2013-03-21 22:55:00
7:15 PM,26.6,8.6,47,29.90,10.0,West,11.5,19.6,N/A,,Scattered Clouds,270,2013-03-21 23:15:00
7:35 PM,24.8,8.6,50,29.90,10.0,West,8.1,-,N/A,,Partly Cloudy,270,2013-03-21 23:35:00
7:55 PM,24.8,8.6,50,29.90,10.0,West,11.5,-,N/A,,Clear,260,2013-03-21 23:55:00
8:15 PM,23.0,6.8,50,29.91,10.0,West,8.1,-,N/A,,Clear,280,2013-03-22 00:15:00
8:35 PM,23.0,6.8,50,29.92,10.0,West,6.9,-,N/A,,Partly Cloudy,270,2013-03-22 00:35:00
8:55 PM,24.8,8.6,50,29.93,10.0,West,8.1,-,N/A,,Mostly Cloudy,260,2013-03-22 00:55:00
9:15 PM,24.8,8.6,50,29.94,10.0,WSW,5.8,-,N/A,,Overcast,250,2013-03-22 01:15:00
9:55 PM,24.8,8.6,50,29.94,10.0,WSW,10.4,-,N/A,,Overcast,250,2013-03-22 01:55:00
10:15 PM,24.8,10.4,54,29.94,10.0,SW,6.9,-,N/A,,Overcast,230,2013-03-22 02:15:00
10:35 PM,23.0,8.6,54,29.94,10.0,SW,8.1,-,N/A,,Mostly Cloudy,230,2013-03-22 02:35:00
10:55 PM,23.0,8.6,54,29.94,10.0,SW,8.1,-,N/A,,Scattered Clouds,230,2013-03-22 02:55:00
11:15 PM,23.0,8.6,54,29.95,10.0,SW,5.8,-,N/A,,Clear,230,2013-03-22 03:15:00
11:35 PM,23.0,8.6,54,29.95,10.0,SW,6.9,-,N/A,,Partly Cloudy,230,2013-03-22 03:35:00
11:55 PM,23.0,10.4,59,29.95,10.0,SW,5.8,-,N/A,,Mostly Cloudy,230,2013-03-22 03:55:00